SCP
-0 -0 -0 -0 -0 -0 0 0 0 0 0 0 0 0 -0 -0 -0 -0 -0 -0 0 0 0 0 0 0 0 0 0 0 0 0 0 0 0 0 -0 -0 -0 -0 -0 0 0
-0 -0 -0 -0 -0 -0 0 0 0 0 0 0 0 -0 -0 -0 -0 -0 -0 -0 0 0 0 0 0 0 0 0 0 0 0 0 0 0 -0 -0 -0 -0 -0 -0 -0 0 0
-0 -0 -0 -0 -0 -0 -0 -0 0 0 0 0 -0 -0 -0 -0 -0 -0 -0 -0 0 0 0 0 0 0 0 0 0 0 0 0 -0 -0 -0 -0 -0 0 0 0 0 0 0
-0 -0 -0 -0 -0 -0 -0 -0 -0 -0 -0 -0 -0 -0 -0 -0 -0 -0 -0 -0 -0 0 0 0 0 0 0 -0 -0 -0 -0 -0 -0 -0 -0 -0 -0 0 0 0 0 0 0
-0 -0 -0 -0 -0 -0 -0 -0 -0 -0 -0 -0 -0 -0 -0 -0 -0 -0 -0 -0 -0 -0 -0 0 0 -0 -0 -0 -0 -0 -0 -0 -0 -0 -0 -0 -0 0 0 0 0 0 0
-0 -0 -0 -0 -0 -0 -0 -0 -0 -0 -0 -0 -0 -0 -0 -0 -0 -0 -0 -0 -0 -0 -0 -0 -0 -0 -0 -0 -0 -0 -0 -0 -0 -0 -0 -0 -0 0 0 0 0 0 0
0 0 0 0 0 0 0 -0 -0 -0 -0 -0 -0 -0 -0 -0 -0 -0 -0 -0 -0 -0 -0 -0 -0 -0 -0 -0 -0 -0 -0 -0 -0 -0 -0 -0 0 0 0 0 0 0 0
0 0 0 0 0 0 0 0 0 -0 -0 -0 -0 -0 -0 -0 -0 -0 -0 -0 -0 -0 -0 -0 -0 -0 -0 -0 -0 -0 -0 -0 -0 -0 0 0 0 0 0 0 0 0 0
0 0 0 0 0 0 0 0 0 0 0 -0 -0 -0 -0 -0 -0 -0 -0 -0 -0 -0 -0 -0 -0 -0 -0 -0 0 0 0 0 0 0 0 0 0 0 0 0 0 0 0
1 1 0 0 0 0 0 0 0 0 0 0 0 -0 -0 -0 -0 -0 -0 -0 -0 0 0 0 0 0 0 0 0 0 0 0 0 0 0 0 0 0 0 0 0 0 0
1 1 1 1 0 0 0 0 0 0 0 0 0 0 0 0 -0 -0 0 0 0 0 0 0 0 0 0 0 0 0 0 0 0 0 0 0 0 0 0 0 0 0 0
1 1 1 1 1 1 0 0 0 0 0 0 0 0 0 0 0 0 0 0 0 0 0 0 0 0 0 0 0 0 0 0 0 0 0 0 0 0 0 0 0 0 0
1 1 1 1 1 1 0 0 0 0 0 0 0 0 0 0 0 0 0 0 0 0 0 0 0 0 0 0 0 0 0 0 0 0 0 0 0 0 0 0 0 0 0
1 1 1 1 1 1 1 0 0 0 0 0 0 0 0 0 0 0 0 0 0 0 0 0 0 0 0 0 0 0 0 0 0 0 0 0 0 0 0 0 0 0 0
1 1 1 1 1 1 1 0 0 0 0 0 0 0 0 0 0 0 0 0 0 0 0 0 0 0 0 0 0 0 0 0 0 0 0 0 0 0 0 0 0 0 0
1 1 1 1 1 1 1 0 0 0 0 0 0 0 0 0 0 0 0 0 0 0 0 0 0 0 0 0 0 0 0 0 0 0 0 0 0 0 0 0 0 0 0
1 1 0 0 0 0 0 0 0 0 0 0 0 0 0 0 0 0 0 0 0 0 0 0 0 0 0 0 0 0 0 0 0 0 0 0 0 0 0 0 0 0 0
1 0 0 0 0 0 0 0 0 0 0 0 0 0 0 0 0 0 0 0 0 0 0 0 0 0 0 0 0 0 0 0 0 0 0 0 0 0 0 0 0 0 0
0 0 0 0 0 0 0 0 0 0 0 0 0 0 0 0 0 0 0 0 0 0 0 0 0 0 0 0 0 0 0 0 0 0 0 0 0 0 0 0 0 0 0
0 0 0 0 0 0 1 1 0 0 0 0 0 0 0 0 0 0 0 0 0 0 0 0 0 0 0 0 0 0 0 0 0 0 0 0 0 0 0 0 0 0 0
0 0 0 0 0 0 1 1 1 0 0 0 0 0 0 0 0 0 0 0 0 0 0 0 0 0 0 0 0 0 0 0 0 0 0 0 0 0 0 0 0 0 0
0 0 0 0 0 0 0 1 0 0 0 0 0 0 0 0 0 0 0 0 0 0 0 0 0 0 0 0 0 0 0 0 0 0 0 0 0 0 0 0 0 0 0
0 0 0 0 0 0 0 0 0 0 0 0 0 0 0 0 0 0 0 0 0 0 0 0 0 0 0 0 0 0 0 0 0 0 0 0 0 0 0 0 0 0 0
0 0 0 0 0 0 0 0 0 0 0 0 0 0 0 0 0 0 0 0 0 0 0 0 0 0 0 0 0 0 0 0 0 0 0 0 0 0 0 0 0 0 0
0 0 0 0 0 0 0 0 0 0 0 0 0 0 0 0 0 0 0 0 0 0 0 0 0 0 0 0 0 0 0 0 0 0 0 0 0 0 0 0 0 0 0
0 0 0 0 0 0 0 0 0 0 0 0 0 0 0 0 0 0 0 0 0 0 0 0 0 0 0 0 0 0 0 0 0 0 0 0 0 0 0 0 0 0 0
Wind_Speed
12 16 18 16 15 14 14 13 13 12 12 11 10 10 10 10 11 11 12 12 12 13 14 16 17 17 16 16 15 15 14 14 14 13 12 11 11 11 10 8 6 9 10
16 17 18 15 15 14 14 13 12 11 11 10 9 10 10 10 11 11 12 12 12 13 14 15 16 16 16 15 14 14 13 13 12 10 6 7 8 9 9 9 10 8 8
17 17 18 14 14 14 14 13 12 11 10 9 8 9 10 11 11 12 12 12 13 13 14 15 15 15 14 14 13 12 12 11 10 5 1 6 9 9 9 8 8 8 8
17 15 16 15 14 14 14 13 12 11 10 8 8 9 10 11 11 12 12 12 13 13 13 14 13 13 12 12 11 11 10 9 7 3 4 7 8 9 8 9 9 9 9
16 14 15 14 13 14 14 13 12 11 9 8 8 9 10 10 11 12 12 12 12 12 12 12 12 11 11 10 10 10 9 8 2 3 7 7 7 8 9 10 10 9 9
15 14 15 13 13 13 14 13 12 11 10 8 7 9 10 10 11 12 11 11 11 11 11 11 10 10 10 9 9 9 8 4 1 6 6 6 7 8 8 9 9 9 9
14 13 15 13 13 13 13 13 12 11 10 8 7 9 10 11 11 11 10 10 10 10 10 9 9 9 9 9 8 8 6 3 5 6 5 6 7 7 8 8 9 9 10
13 12 14 14 12 12 13 12 12 11 9 8 7 8 9 10 10 10 9 9 8 8 8 8 8 7 7 7 7 6 4 3 3 4 4 5 7 6 7 8 8 8 9
12 11 12 14 13 12 12 11 11 10 9 8 7 8 9 9 9 9 8 7 7 7 7 6 6 6 6 6 5 4 3 2 2 2 2 3 5 5 6 6 6 7 7
10 10 10 11 12 12 12 11 10 9 8 8 8 8 8 7 7 7 6 6 5 5 5 5 5 5 5 5 4 3 1 4 2 1 1 3 3 2 3 4 4 5 6
9 9 9 10 10 10 10 11 10 9 8 9 8 8 6 5 6 6 4 4 3 4 4 4 4 4 4 4 3 1 3 3 2 2 1 3 2 2 1 2 2 3 3
11 9 8 9 9 9 7 8 7 7 8 7 6 7 5 3 2 2 7 3 2 2 2 3 3 4 4 2 3 3 3 3 3 2 1 1 5 4 3 2 1 0 1
10 9 8 8 8 8 6 6 4 4 5 5 6 6 4 4 3 3 3 5 5 4 4 4 5 3 3 2 2 3 3 4 3 3 2 2 6 7 6 5 4 3 2
8 9 8 8 7 8 7 5 5 4 4 4 5 6 4 3 3 3 3 3 3 3 3 4 3 3 4 4 5 5 4 4 4 3 2 3 7 9 8 8 7 6 5
8 8 9 8 8 7 6 5 5 5 5 5 4 5 5 4 4 4 3 3 4 3 4 4 4 4 5 5 5 6 6 6 6 5 3 6 9 10 11 11 10 9 9
8 9 8 9 9 8 7 6 5 5 5 4 5 6 6 5 4 4 4 4 4 4 4 5 6 5 5 5 6 7 7 7 7 7 6 6 10 12 13 13 13 12 12
9 9 9 9 9 9 9 8 5 5 5 5 5 6 7 6 6 5 5 5 5 5 6 5 6 6 5 6 8 8 7 8 8 9 8 7 7 11 14 15 16 15 14
8 9 9 8 9 10 8 7 5 5 5 5 5 5 7 7 7 6 5 5 6 5 5 5 6 6 6 7 7 7 7 6 9 9 8 8 8 7 10 15 17 17 17
7 9 9 9 10 9 8 7 6 5 5 5 5 5 6 7 7 7 6 6 6 5 5 5 6 6 7 7 7 7 7 7 8 8 10 10 10 9 9 9 14 15 16
6 7 8 9 9 8 7 6 4 5 5 4 4 5 6 6 7 7 6 7 7 6 6 6 7 7 7 7 7 7 8 8 8 9 10 9 9 10 10 10 8 10 16
5 6 8 8 8 7 6 5 5 5 5 4 4 4 5 5 6 6 6 7 6 6 8 8 7 8 7 5 5 7 8 10 10 8 8 8 8 8 8 9 8 8 7
5 6 7 7 7 7 5 4 3 3 3 3 2 2 2 3 4 4 6 6 6 6 8 8 8 6 5 5 5 5 6 7 7 7 6 6 7 6 7 7 8 8 8
5 6 5 5 6 6 5 4 3 3 3 3 3 2 1 2 3 4 5 5 5 6 6 8 8 9 8 7 6 6 6 6 4 3 5 5 6 5 5 5 7 8 8
6 4 5 5 5 5 5 5 6 5 4 3 2 1 1 1 2 3 4 5 5 5 6 7 7 7 8 8 6 7 8 7 5 5 4 4 5 6 6 5 5 6 7
7 6 5 6 5 4 4 4 4 4 2 2 2 2 2 1 1 2 3 4 4 4 6 7 7 7 7 8 7 6 7 7 8 7 7 6 5 4 5 5 5 5 5
8 7 7 7 6 5 4 4 3 4 3 3 3 2 2 1 1 1 3 3 4 4 5 6 6 7 7 8 7 6 6 6 5 6 7 6 5 4 5 4 4 4 4
Wind_Direction
162 157 149 154 151 147 142 136 129 122 115 110 109 111 110 103 96 90 85 81 80 81 85 86 87 87 87 85 84 81 79 76 73 68 64 63 65 68 64 46 37 76 66
154 155 147 155 153 149 143 135 127 121 114 111 111 113 112 105 99 95 89 85 84 84 86 87 87 86 85 84 83 82 80 77 73 66 62 88 71 65 61 46 34 54 61
152 153 151 153 151 147 140 134 130 123 116 113 116 118 116 109 103 98 93 88 86 85 86 87 86 86 84 83 82 81 79 76 70 58 303 82 83 68 61 55 52 52 54
152 155 156 146 148 144 139 136 132 126 120 117 120 123 121 115 107 100 96 91 89 88 88 87 87 85 83 82 81 80 78 73 60 324 64 64 71 67 58 55 54 54 51
152 155 143 144 145 143 140 138 134 129 123 119 120 123 122 118 110 102 98 94 93 92 91 90 86 83 80 78 78 78 77 73 43 43 64 61 64 61 59 53 50 47 45
152 153 142 145 142 141 140 139 137 132 127 123 122 126 126 120 111 105 102 100 98 98 96 92 86 80 76 75 77 79 78 62 305 63 59 57 63 63 63 56 50 48 45
152 153 147 145 143 142 142 140 138 135 132 131 129 130 127 119 112 110 108 106 103 102 99 95 88 80 74 74 77 79 78 19 39 61 55 58 57 54 63 58 52 48 45
153 154 149 145 144 145 143 141 140 139 137 135 130 125 123 119 118 116 114 111 108 105 101 97 91 85 80 77 79 81 76 337 61 59 57 64 52 55 65 61 54 48 44
158 158 157 157 154 147 142 141 142 141 138 134 128 118 110 114 120 120 118 114 109 104 101 99 96 89 83 81 81 84 81 338 328 54 46 57 50 54 67 61 53 46 40
164 164 163 164 162 160 154 143 141 138 134 125 115 110 111 116 124 125 140 115 109 107 105 101 97 91 83 78 76 79 87 257 327 358 342 69 37 31 77 70 54 47 42
170 169 169 167 165 164 159 150 151 145 137 140 133 125 153 165 157 157 113 96 104 108 113 112 107 104 112 107 82 61 253 282 322 312 311 50 308 306 128 105 72 50 42
175 173 172 171 167 165 157 162 166 163 161 177 160 164 177 163 151 149 117 105 98 106 139 123 118 160 224 198 154 221 264 286 288 278 306 347 280 273 244 204 182 142 43
180 176 178 175 174 170 165 168 168 171 171 179 178 177 177 175 174 194 181 171 189 197 206 174 209 225 253 275 279 268 290 290 283 280 241 219 271 268 254 229 218 218 226
190 187 187 182 183 182 178 175 178 182 186 188 188 193 190 193 205 207 218 213 219 215 227 238 250 245 255 256 264 273 267 264 271 276 265 222 262 266 260 243 230 226 229
202 199 194 193 193 187 187 184 191 196 200 199 195 203 210 211 213 217 223 222 231 234 231 240 249 255 262 266 265 269 272 269 268 263 250 219 243 257 259 253 241 236 233
210 206 198 199 199 194 196 197 199 203 204 213 207 213 215 224 227 231 234 233 238 237 244 250 255 262 266 265 269 267 266 266 263 263 264 237 225 240 250 252 247 244 239
210 208 204 200 201 202 206 208 207 207 210 212 213 218 219 226 234 238 246 244 243 243 246 252 259 263 267 266 265 266 266 266 264 262 259 261 246 226 235 245 247 246 244
210 206 203 199 202 205 208 209 210 212 212 218 220 220 222 228 234 242 246 249 251 250 249 251 258 259 259 260 266 266 263 261 264 265 262 254 255 251 232 233 242 247 247
214 205 200 200 203 204 206 210 214 215 218 225 226 227 227 233 236 239 245 252 254 252 252 253 256 259 266 267 269 273 271 267 266 262 259 257 254 251 255 233 229 241 247
213 208 201 198 202 202 202 206 206 216 220 223 227 232 236 235 236 241 246 253 255 250 250 248 252 253 262 273 277 272 270 266 261 260 263 262 256 254 255 259 247 237 236
196 198 197 195 195 194 193 199 205 212 215 216 222 234 240 244 242 241 247 254 251 251 255 256 255 258 256 256 265 270 264 257 257 256 256 261 260 258 258 258 258 261 247
188 190 191 190 186 189 194 192 198 197 210 213 202 209 235 251 255 253 253 255 253 253 256 257 255 254 254 236 247 275 279 269 241 240 249 253 263 262 258 260 262 261 265
186 184 179 176 175 179 180 172 163 170 181 189 194 199 240 274 267 260 262 263 262 258 260 261 256 252 258 250 236 249 269 274 297 237 240 252 263 268 268 271 270 269 268
180 168 166 163 160 165 177 187 194 201 208 199 197 201 226 284 290 287 279 274 269 264 264 266 263 260 260 260 248 240 252 274 277 281 250 254 268 273 278 276 276 277 276
167 163 158 152 146 149 160 171 190 200 200 179 196 215 225 219 295 311 300 287 279 275 273 273 271 264 259 261 259 251 247 249 249 261 275 275 264 265 278 288 291 295 298
163 160 157 150 138 136 141 152 173 180 188 198 214 229 236 236 256 319 315 299 292 287 284 280 275 268 263 261 260 255 253 251 248 249 263 271 274 282 286 292 301 316 325